User: anonymous   Login
Location: Fisheating Creek Campgrounds
(26.9333°N, 81.3167°W)
Time: 20:45:00
(UTC-05:00)
Language:

Cosmos 2221 Rocket - Orbit

View from above orbital plane
View from above orbital plane
View from above satellite
View from above satellite

Ground track
Ground track

The orbit data is extracted from the following two-line orbital elements,

1 22237U 92080B   15031.91487623  .00000391  00000-0  50759-4 0  5567
2 22237 082.5112 204.3602 0020723 157.9194 003.2668 14.78042363195316
Epoch (UTC): 31 January 2015 21:57:25
Eccentricity: 0.0020723
inclination: 82.5112°
perigee height: 621 km
apogee height: 650 km
right ascension of ascending node: 204.3602°
argument of perigee: 157.9194°
revolutions per day: 14.78042363
mean anomaly at epoch: 3.2668°
orbit number at epoch: 19531

The dashed part of the orbit path shows where the satellite is in the earth's shadow,  

DLR